Location: Dumpton Point
(51.3500°N, 1.4433°E)
Time: 22:20:24
(UTC+00:00)

Vanguard 2 Rocket - Pass Details

Date: 03 October 2022
Orbit: 555 x 3321 km, 32.9° (Epoch: 05 December)

Event Time Altitude Azimuth Distance (km) Brightness Sun altitude
Rises 02:00:07 0° 253° (WSW) 5,240 - -34.7°
Reaches altitude 10° 02:05:39 10° 236° (SW) 3,626 - -34.1°
Maximum altitude 02:10:31 16° 202° (SSW) 2,632 - -33.5°
Drops below altitude 10° 02:14:16 10° 166° (SSE) 2,649 - -33.1°
Sets 02:17:23 0° 143° (SE) 3,265 - -32.7°
